Tracking 25686 objects as of 25-May-2022
HD Live streaming from Space Station
objects crossing your sky now

BREEZE-M DEB (TANK)

Track BREEZE-M DEB (TANK) now!
10-day predictions


NORAD ID: 28395
Int'l Code: 2004-031C
Perigee: 308.8 km
Apogee: 15,097.1 km
Inclination: 49.4 °
Period: 276.9 minutes
Semi major axis: 14073 km
RCS: 6.5834 m2 (large)
Launch date: August 4, 2004
Source: Commonwealth of Independent States (former USSR) (CIS)
Launch site: TYURATAM MISSILE AND SPACE COMPLEX (TTMTR)

Note: This is SATELLITE DEBRIS
aabbcc
Your satellite tracking list
Your tracking list is empty




NASA's NSSDC Master Catalog

Two Line Element Set (TLE):
1 28395U 04031C   22144.57304825  .00003080  00000-0  56983-3 0  9997
2 28395  49.3856 181.6259 5253750 141.2840 271.6604  5.19970747326234
Source of the keplerian elements: AFSPC